Regional Weather Roundup
Issued by NWS

Home | Current Version | Previous Version | Text Only | Print | Product List | Glossary Off
Versions: 1 2 3 4 5 6 7 8 9 10 11 12 13 14 15 16 17 18 19 20 21 22 23 24 25 26 27 28 29 30 31 32 33 34 35 36 37 38 39 40 41 42 43 44 45 46 47 48 49 50

898
ASUS43 KLSX 010310
RWRMO

WEATHER SUMMARY FOR MISSOURI
NATIONAL WEATHER SERVICE SPRINGFIELD MO
1000 PM CDT SAT APR 30 2016

NOTE: "FAIR" INDICATES FEW OR NO CLOUDS BELOW 12,000 FEET WITH NO
       SIGNIFICANT WEATHER AND/OR OBSTRUCTIONS TO VISIBILITY.
       CURRENT SKY AND/OR WEATHER CONDITIONS ARE NOT AVAILABLE FOR
       CHILLICOTHE AND FARMINGTON.

MOZ001>031-035>038-043-044-053-054-010400-
...NORTHERN AND WESTERN MISSOURI...

CITY           SKY/WX    TMP DP  RH WIND       PRES   REMARKS
KANSAS CTY INT MOCLDY    59  47  64 CALM      29.83R
KANSAS C DTWN  MOCLDY    61  51  70 CALM      29.82R
LEE`S SUMMIT   CLOUDY    60  48  64 SW5       29.84R
ST JOSEPH      MOCLDY    55  51  86 CALM      29.82R
CHILLICOTHE      N/A     53  51  93 CALM      29.83R
KIRKSVILLE     CLOUDY    56  53  90 NE8       29.85R

$$
MOZ066>068-077>081-088>096-101>105-010400-
...SOUTHWEST MISSOURI...

CITY           SKY/WX    TMP DP  RH WIND       PRES   REMARKS
SPRINGFIELD    CLEAR     60  50  69 W5        29.85R
JOPLIN         CLEAR     57  52  83 CALM      29.87R

$$
MOZ032>034-039>042-045>050-055>058-069>072-010400-
...CENTRAL MISSOURI...

CITY           SKY/WX    TMP DP  RH WIND       PRES   REMARKS
COLUMBIA       PTCLDY    60  53  77 N6        29.82R
JEFFERSON CITY CLEAR     60  56  86 CALM      29.82R
ROLLA          CLEAR     62  56  80 NW5       29.81R
SEDALIA        MOCLDY    63  52  67 W3        29.85R
WHITEMAN AFB   CLEAR     59  53  79 W3        29.83R
WARRENSBURG    PTCLDY    59  46  63 SW6       29.83R
OSAGE BEACH    PTCLDY    57  48  72 CALM      29.85R

$$
MOZ051-052-059>065-010400-
...EAST CENTRAL MISSOURI...

CITY           SKY/WX    TMP DP  RH WIND       PRES   REMARKS
ST LOUIS INTL  CLOUDY    62  54  74 S10       29.82R
SPIRIT OF STL  CLOUDY    60  56  86 S7        29.80R
ST CHARLES     PTCLDY    58  57  97 CALM      29.80R

$$
MOZ072>076-082>087-097>100-106>115-010400-
...SOUTH CENTRAL AND SOUTHEAST MISSOURI...

CITY           SKY/WX    TMP DP  RH WIND       PRES   REMARKS
CAPE GIRARDEAU CLEAR     64  60  87 SE5       29.82R
FARMINGTON     LGT RAIN  66  62  87 W12G18    29.85R
POPLAR BLUFF   CLOUDY    69  62  78 S6        29.81R
WEST PLAINS    CLOUDY    62  54  74 CALM      29.83R THUNDER

$$




USA.gov is the U.S. government's official web portal to all federal, state and local government web resources and services.